Date String (YYYY-MM-DD hh:mm:ss) UTC,Instrument flags,Ambient pressure (hPa),Sample flow (lpm),Bypass flow (lpm),Sample temperature (°C),Ambient temperature (°C),ASC tube jacket temperature (°C),LED temperature (°C),Box temperature (°C),Sample RH (%),Span deviation,Mass concentration (μg/m³),Mass concentration (μg/m³),Mass concentration (μg/m³)
DateTimeUTC,F1_M11,P_M11,Q1_M11,Q2_M11,T1_M11,T2_M11,T3_M11,T4_M11,T5_M11,U1_M11,ZSPAN_M11,X0_M11,X2_M11,X1_M11
2023-04-22 08:00:00,,0833.8,5.00,0.00,22.7,21.7,00.0,31.0,24.5,17.2,0000.0,0008.37,0004.33,0003.66
2023-04-22 08:01:00,,0833.9,4.99,0.00,22.8,22.6,00.0,31.0,24.8,17.0,0000.0,0008.36,0004.34,0003.68
2023-04-22 08:02:00,,0833.9,4.99,0.00,22.9,23.0,00.0,31.1,24.8,16.9,0000.0,0008.49,0004.38,0003.71
2023-04-22 08:03:00,,0833.8,5.01,0.00,22.9,22.8,00.0,31.1,24.7,16.8,0000.0,0008.46,0004.39,0003.71
2023-04-22 08:04:00,,0833.9,5.01,0.00,22.9,22.5,00.0,31.2,24.6,16.8,0000.0,0008.08,0004.38,0003.72
2023-04-22 08:05:00,,0833.8,5.00,0.00,22.9,22.2,00.0,31.2,24.5,16.8,0000.0,0007.79,0004.40,0003.72
2023-04-22 08:06:00,,0833.9,4.99,0.00,22.9,22.0,00.0,31.2,24.5,16.8,0000.0,0007.89,0004.38,0003.72
2023-04-22 08:07:00,,0833.8,5.00,0.00,22.9,21.9,00.0,31.2,24.4,16.8,0000.0,0007.94,0004.36,0003.73
2023-04-22 08:08:00,,0833.9,5.01,0.00,22.8,21.7,00.0,31.2,24.3,16.8,0000.0,0007.95,0004.35,0003.73
2023-04-22 08:09:00,,0833.8,4.99,0.00,22.8,21.5,00.0,31.2,24.3,16.8,0000.0,0007.99,0004.34,0003.74
2023-04-22 08:10:00,,0833.9,4.99,0.00,22.8,21.4,00.0,31.2,24.3,16.8,0000.0,0008.03,0004.33,0003.74
2023-04-22 08:11:00,,0833.9,5.01,0.00,22.8,21.3,00.0,31.2,24.3,16.8,0000.0,0008.04,0004.32,0003.73
2023-04-22 08:12:00,,0833.9,5.00,0.00,22.8,21.4,00.0,31.2,24.3,16.8,0000.0,0008.08,0004.33,0003.73
2023-04-22 08:13:00,,0833.9,5.01,0.00,22.9,22.0,00.0,31.1,24.7,16.8,0000.0,0008.00,0004.31,0003.72
2023-04-22 08:14:00,,0834.0,4.99,0.00,23.0,22.9,00.0,31.1,25.0,16.6,0000.0,0007.96,0004.30,0003.72
2023-04-22 08:15:00,,0833.9,4.99,0.00,23.1,23.0,00.0,31.2,24.9,16.6,0000.0,0007.98,0004.30,0003.72
2023-04-22 08:16:00,,0833.9,5.00,0.00,23.1,22.8,00.0,31.3,24.8,16.5,0000.0,0007.61,0004.26,0003.72
2023-04-22 08:17:00,,0833.9,5.01,0.00,23.1,22.5,00.0,31.3,24.7,16.5,0000.0,0007.43,0004.25,0003.72
2023-04-22 08:18:00,,0833.8,5.01,0.00,23.0,22.3,00.0,31.3,24.7,16.6,0000.0,0007.27,0004.24,0003.72
2023-04-22 08:19:00,,0833.9,5.00,0.00,23.0,22.1,00.0,31.3,24.6,16.5,0000.0,0007.27,0004.23,0003.71
2023-04-22 08:20:00,,0833.8,5.00,0.00,23.0,21.9,00.0,31.3,24.6,16.5,0000.0,0006.99,0004.23,0003.71
2023-04-22 08:21:00,,0833.9,5.00,0.00,23.0,21.8,00.0,31.4,24.5,16.6,0000.0,0006.96,0004.25,0003.72
2023-04-22 08:22:00,,0833.8,4.99,0.00,23.0,21.7,00.0,31.4,24.5,16.6,0000.0,0007.39,0004.30,0003.73
2023-04-22 08:23:00,,0833.9,5.00,0.00,22.9,21.6,00.0,31.4,24.5,16.6,0000.0,0007.54,0004.27,0003.73
2023-04-22 08:24:00,,0833.9,4.99,0.00,22.9,21.5,00.0,31.4,24.4,16.6,0000.0,0007.83,0004.29,0003.73
2023-04-22 08:25:00,,0833.8,5.01,0.00,22.9,21.5,00.0,31.4,24.4,16.5,0000.0,0008.18,0004.29,0003.73
2023-04-22 08:26:00,,0833.8,5.00,0.00,22.9,21.4,00.0,31.3,24.3,16.6,0000.0,0008.25,0004.30,0003.73
2023-04-22 08:27:00,,0833.8,5.01,0.00,22.9,21.3,00.0,31.3,24.3,16.6,0000.0,0008.38,0004.34,0003.74
2023-04-22 08:28:00,,0833.8,5.00,0.00,22.8,21.2,00.0,31.3,24.3,16.6,0000.0,0008.48,0004.35,0003.74
2023-04-22 08:29:00,,0833.8,4.99,0.00,22.8,21.2,00.0,31.3,24.3,16.6,0000.0,0008.84,0004.39,0003.75
2023-04-22 08:30:00,,0833.8,5.01,0.00,22.9,21.8,00.0,31.2,24.6,16.5,0000.0,0008.83,0004.40,0003.76
2023-04-22 08:31:00,,0833.8,5.00,0.00,23.0,22.8,00.0,31.2,25.0,16.4,0000.0,0008.81,0004.40,0003.75
2023-04-22 08:32:00,,0833.9,5.00,0.00,23.1,23.5,00.0,31.2,25.1,16.3,0000.0,0008.78,0004.39,0003.74
2023-04-22 08:33:00,,0833.9,5.00,0.00,23.2,23.3,00.0,31.3,25.0,16.2,0000.0,0008.42,0004.34,0003.73
2023-04-22 08:34:00,,0833.9,5.00,0.00,23.2,23.0,00.0,31.4,24.9,16.2,0000.0,0008.16,0004.32,0003.73
2023-04-22 08:35:00,,0833.9,5.00,0.00,23.1,22.7,00.0,31.4,24.8,16.2,0000.0,0007.85,0004.29,0003.73
2023-04-22 08:36:00,,0833.8,5.01,0.00,23.1,22.4,00.0,31.4,24.8,16.2,0000.0,0007.54,0004.29,0003.74
2023-04-22 08:37:00,,0833.9,5.01,0.00,23.1,22.2,00.0,31.4,24.7,16.2,0000.0,0007.44,0004.28,0003.75
2023-04-22 08:38:00,,0833.9,5.00,0.00,23.1,22.0,00.0,31.5,24.7,16.2,0000.0,0007.39,0004.27,0003.75
2023-04-22 08:39:00,,0833.8,5.00,0.00,23.1,21.9,00.0,31.5,24.7,16.2,0000.0,0007.40,0004.29,0003.76
2023-04-22 08:40:00,,0833.9,5.00,0.00,23.1,21.8,00.0,31.5,24.6,16.2,0000.0,0006.90,0004.28,0003.76
2023-04-22 08:41:00,,0833.9,5.00,0.00,23.1,21.7,00.0,31.5,24.6,16.2,0000.0,0006.95,0004.28,0003.76
2023-04-22 08:42:00,,0833.8,4.99,0.00,23.0,21.6,00.0,31.4,24.5,16.2,0000.0,0007.17,0004.31,0003.77
2023-04-22 08:43:00,,0833.8,5.01,0.00,23.0,21.6,00.0,31.4,24.5,16.2,0000.0,0007.42,0004.33,0003.78
2023-04-22 08:44:00,,0833.8,5.00,0.00,23.0,21.6,00.0,31.4,24.5,16.2,0000.0,0007.75,0004.34,0003.79
2023-04-22 08:45:00,,0833.8,5.01,0.00,23.0,21.5,00.0,31.4,24.5,16.2,0000.0,0008.09,0004.40,0003.80
2023-04-22 08:46:00,,0833.9,5.00,0.00,23.0,21.5,00.0,31.4,24.4,16.2,0000.0,0008.15,0004.42,0003.82
2023-04-22 08:47:00,,0833.9,5.01,0.00,22.9,21.5,00.0,31.4,24.4,16.3,0000.0,0008.17,0004.44,0003.82
2023-04-22 08:48:00,,0833.9,4.98,0.00,22.9,21.4,00.0,31.4,24.4,16.3,0000.0,0008.23,0004.46,0003.83
2023-04-22 08:49:00,,0833.9,4.99,0.00,22.9,21.3,00.0,31.4,24.3,16.3,0000.0,0008.39,0004.46,0003.84
2023-04-22 08:50:00,,0833.9,5.00,0.00,22.9,21.2,00.0,31.4,24.3,16.3,0000.0,0008.34,0004.45,0003.84
2023-04-22 08:51:00,,0834.0,5.01,0.00,22.9,21.2,00.0,31.4,24.3,16.4,0000.0,0008.27,0004.43,0003.85
2023-04-22 08:52:00,,0833.9,5.01,0.00,22.8,21.2,00.0,31.4,24.3,17.0,0000.0,0008.28,0004.44,0003.86
2023-04-22 08:53:00,,0833.9,4.99,0.00,22.8,21.3,00.0,31.3,24.4,17.0,0000.0,0008.24,0004.45,0003.88
2023-04-22 08:54:00,,0833.9,5.00,0.00,22.9,21.8,00.0,31.3,24.6,16.5,0000.0,0008.09,0004.45,0003.89
2023-04-22 08:55:00,,0833.9,5.01,0.00,23.0,22.7,00.0,31.2,24.9,16.3,0000.0,0007.81,0004.45,0003.90
2023-04-22 08:56:00,,0833.9,4.99,0.00,23.1,22.9,00.0,31.3,24.9,16.2,0000.0,0007.61,0004.45,0003.92
2023-04-22 08:57:00,,0834.0,4.99,0.00,23.1,22.7,00.0,31.4,24.9,16.2,0000.0,0007.53,0004.43,0003.93
2023-04-22 08:58:00,,0833.9,5.00,0.00,23.1,22.4,00.0,31.4,24.8,16.2,0000.0,0007.53,0004.42,0003.93
2023-04-22 08:59:00,,0833.9,5.00,0.00,23.1,22.3,00.0,31.4,24.7,16.2,0000.0,0007.52,0004.41,0003.93
